Aurora, OR

7:51 AM PST on February 13, 2016 (GMT -0800)
Aurora State

Weather History for KUAO - June, 2013

Change the Weather History Date:

Sunday, June 16, 2013

  Actual Average Record
Temperature  
Mean Temperature 62 °F -  
Max Temperature 74 °F - - ()
Min Temperature 50 °F - - ()
Degree Days  
Heating Degree Days 3    
Month to date heating degree days 52  
Since 1 June heating degree days 52  
Since 1 July heating degree days 4319  
Cooling Degree Days 0    
Month to date cooling degree days 15  
Year to date cooling degree days 30  
Since 1 June cooling degree days 15  
Growing Degree Days 12 (Base 50)    
Moisture  
Dew Point 52 °F    
Average Humidity 73    
Maximum Humidity 96    
Minimum Humidity 49    
Precipitation  
Precipitation 0.00 in - - ()
Month to date precipitation 0.24  
Year to date precipitation 12.21  
Sea Level Pressure  
Sea Level Pressure 30.09 in    
Wind  
Wind Speed 3 mph (SW)    
Max Wind Speed 10 mph    
Max Gust Speed 13 mph    
Visibility 10 miles    
Events      
T = Trace of Precipitation, MM = Missing Value Source: NWS Daily Summary

Daily Weather History Graph

Daily Weather History Graph

Search for Another Location

Airport or City:

Trip Planner

Search our weather history database for the weather conditions in past years. The results will help you decide how hot, cold, wet, or windy it might be!

Date:

Astronomy

Jun. 16, 2013 Rise Set
Actual Time 5:22 AM PDT 9:01 PM PDT
Civil Twilight 4:45 AM PDT 9:38 PM PDT
Nautical Twilight 3:54 AM PDT 10:29 PM PDT
Astronomical Twilight 2:47 AM PDT 11:36 PM PDT
Moon 1:25 PM PDT (6/16) 12:49 AM PDT (6/16)
Length of Visible Light 16h 53m
Length of Day
15h 38m
Waxing Crescent, 51% of the Moon is Illuminated
Jun 16
Waxing Crescent
Jun 23
Full
Jun 29
Last Quarter
Jul 8
New
Jul 15
First Quarter

Hourly Weather History & Observations

Time (PDT) Temp. Dew Point Humidity Pressure Visibility Wind Dir Wind Speed Gust Speed Precip Events Conditions
12:53 AM 55.0 °F 51.1 °F 86% 30.04 in 10.0 mi Calm Calm - N/A   Clear
1:53 AM 53.1 °F 51.1 °F 93% 30.05 in 10.0 mi South 3.5 mph - N/A   Clear
2:53 AM 51.1 °F 50.0 °F 96% 30.06 in 10.0 mi Calm Calm - N/A   Clear
3:53 AM 51.1 °F 48.9 °F 92% 30.07 in 10.0 mi Calm Calm - N/A   Clear
4:53 AM 50.0 °F 48.9 °F 96% 30.08 in 10.0 mi Calm Calm - N/A   Clear
5:53 AM 50.0 °F 48.9 °F 96% 30.09 in 10.0 mi Calm Calm - N/A   Scattered Clouds
6:53 AM 53.1 °F 51.1 °F 93% 30.10 in 10.0 mi Calm Calm - N/A   Clear
7:53 AM 55.0 °F 51.1 °F 86% 30.10 in 10.0 mi Calm Calm - N/A   Clear
8:00 AM 55.4 °F 51.8 °F 88% 30.11 in 10.0 mi WSW 3.5 mph - N/A   Scattered Clouds
8:11 AM 55.4 °F 51.8 °F 88% 30.11 in 10.0 mi Calm Calm - N/A   Mostly Cloudy
8:31 AM 55.4 °F 51.8 °F 88% 30.11 in 10.0 mi Calm Calm - N/A   Overcast
8:53 AM 57.0 °F 51.1 °F 81% 30.12 in 10.0 mi Calm Calm - N/A   Overcast
9:46 AM 59.0 °F 51.8 °F 77% 30.10 in 10.0 mi Calm Calm - N/A   Overcast
9:53 AM 60.1 °F 51.1 °F 72% 30.11 in 10.0 mi SSE 4.6 mph - N/A   Overcast
10:53 AM 60.1 °F 52.0 °F 75% 30.11 in 10.0 mi Calm Calm - N/A   Overcast
11:53 AM 64.0 °F 53.1 °F 67% 30.10 in 10.0 mi ESE 4.6 mph - N/A   Mostly Cloudy
12:05 PM 64.4 °F 51.8 °F 64% 30.10 in 10.0 mi Calm Calm - N/A   Scattered Clouds
12:53 PM 64.9 °F 53.1 °F 65% 30.10 in 10.0 mi Calm Calm - N/A   Partly Cloudy
1:53 PM 69.1 °F 54.0 °F 58% 30.09 in 10.0 mi Calm Calm - N/A   Clear
2:53 PM 70.0 °F 54.0 °F 57% 30.08 in 10.0 mi West 4.6 mph - N/A   Clear
3:53 PM 71.1 °F 53.1 °F 53% 30.08 in 10.0 mi Variable 4.6 mph - N/A   Clear
4:53 PM 73.9 °F 53.1 °F 48% 30.08 in 10.0 mi WSW 4.6 mph - N/A   Clear
5:53 PM 73.0 °F 54.0 °F 51% 30.07 in 10.0 mi Calm Calm - N/A   Clear
6:53 PM 73.0 °F 55.0 °F 53% 30.07 in 10.0 mi Calm Calm - N/A   Clear
7:53 PM 72.0 °F 55.0 °F 55% 30.07 in 10.0 mi Calm Calm - N/A   Clear
8:53 PM 68.0 °F 55.0 °F 63% 30.07 in 10.0 mi West 4.6 mph - N/A   Scattered Clouds
9:53 PM 64.9 °F 53.1 °F 65% 30.09 in 10.0 mi WSW 6.9 mph - N/A   Mostly Cloudy
10:53 PM 62.1 °F 53.1 °F 72% 30.11 in 10.0 mi SW 5.8 mph - N/A   Mostly Cloudy
11:53 PM 60.1 °F 52.0 °F 75% 30.12 in 10.0 mi SW 9.2 mph - N/A   Overcast